| time (UTC) | temp F | wind direction | speed knots | gust knots | rain 1hr in | rain 24hr in | rain mn in | humidity % | barometer mb |
| 20260506102727 | 54 | 20 | 6.1 | 7.0 | 0.00 | 0.00 | 0.00 | 80 | 1012.3 |
| 20260506102225 | 54 | 23 | 7.8 | 8.7 | 0.00 | 0.00 | 0.00 | 80 | 1012.2 |
| 20260506101721 | 54 | 27 | 3.5 | 4.3 | 0.00 | 0.00 | 0.00 | 80 | 1012.2 |
| 20260506101218 | 54 | 8 | 6.1 | 7.8 | 0.00 | 0.00 | 0.00 | 79 | 1012.0 |
| 20260506100716 | 54 | 356 | 5.2 | 6.1 | 0.00 | 0.00 | 0.00 | 79 | 1012.1 |
| 20260506100214 | 54 | 32 | 5.2 | 7.0 | 0.00 | 0.00 | 0.00 | 79 | 1012.0 |
| 20260506095712 | 55 | 354 | 5.2 | 6.1 | 0.00 | 0.00 | 0.00 | 79 | 1012.3 |
| 20260506095209 | 55 | 355 | 5.2 | 7.0 | 0.00 | 0.00 | 0.00 | 79 | 1012.2 |
| 20260506094706 | 55 | 345 | 6.1 | 7.0 | 0.00 | 0.00 | 0.00 | 78 | 1012.0 |
| 20260506094204 | 55 | 25 | 3.5 | 5.2 | 0.00 | 0.00 | 0.00 | 79 | 1011.9 |
| 20260506093703 | 55 | 336 | 2.6 | 4.3 | 0.00 | 0.00 | 0.00 | 78 | 1012.1 |
| 20260506093159 | 55 | 6 | 3.5 | 4.3 | 0.00 | 0.00 | 0.00 | 78 | 1012.0 |
| 20260506092656 | 55 | 353 | 6.1 | 7.8 | 0.00 | 0.00 | 0.00 | 77 | 1011.8 |
| 20260506092154 | 55 | 323 | 3.5 | 5.2 | 0.00 | 0.00 | 0.00 | 77 | 1011.8 |
| 20260506091652 | 55 | 342 | 4.3 | 6.1 | 0.00 | 0.00 | 0.00 | 77 | 1011.6 |
| 20260506091149 | 55 | 342 | 6.1 | 7.0 | 0.00 | 0.00 | 0.00 | 77 | 1011.6 |
| 20260506090647 | 55 | 8 | 2.6 | 2.6 | 0.00 | 0.00 | 0.00 | 77 | 1011.4 |
| 20260506090143 | 56 | 2 | 3.5 | 5.2 | 0.00 | 0.00 | 0.00 | 77 | 1011.2 |
| 20260506085640 | 56 | 341 | 5.2 | 7.0 | 0.00 | 0.00 | 0.00 | 76 | 1011.4 |
| 20260506085136 | 56 | 7 | 2.6 | 5.2 | 0.00 | 0.00 | 0.00 | 77 | 1011.5 |
| 20260506084633 | 56 | 60 | 2.6 | 4.3 | 0.00 | 0.00 | 0.00 | 78 | 1011.4 |
| 20260506084130 | 56 | 1 | 2.6 | 2.6 | 0.00 | 0.00 | 0.00 | 78 | 1011.3 |
| 20260506083626 | 56 | 22 | 4.3 | 5.2 | 0.00 | 0.00 | 0.00 | 77 | 1011.4 |
| 20260506083124 | 56 | 37 | 3.5 | 4.3 | 0.00 | 0.00 | 0.00 | 77 | 1011.2 |
| 20260506082621 | 56 | 357 | 3.5 | 4.3 | 0.00 | 0.00 | 0.00 | 77 | 1011.2 |
| 20260506082116 | 56 | 16 | 1.7 | 1.7 | 0.00 | 0.00 | 0.00 | 77 | 1011.3 |
| 20260506081615 | 56 | 1 | 2.6 | 4.3 | 0.00 | 0.00 | 0.00 | 77 | 1011.1 |
| 20260506081112 | 56 | 4 | 4.3 | 5.2 | 0.00 | 0.00 | 0.00 | 78 | 1011.2 |
| 20260506080610 | 56 | 7 | 1.7 | 4.3 | 0.00 | 0.00 | 0.00 | 77 | 1011.1 |
| 20260506080106 | 56 | 53 | 0.9 | 1.7 | 0.00 | 0.00 | 0.00 | 77 | 1011.3 |
| 20260506073050 | 57 | 1 | 4.3 | 5.2 | 0.00 | 0.00 | 0.00 | 77 | 1011.5 |
| 20260506072547 | 57 | 339 | 5.2 | 7.8 | 0.00 | 0.00 | 0.00 | 78 | 1011.3 |
| 20260506072044 | 57 | 8 | 6.1 | 7.0 | 0.00 | 0.00 | 0.00 | 77 | 1011.2 |
| 20260506071542 | 57 | 344 | 6.1 | 7.8 | 0.00 | 0.00 | 0.00 | 77 | 1011.3 |
| 20260506071039 | 57 | 356 | 5.2 | 7.0 | 0.00 | 0.00 | 0.00 | 78 | 1011.6 |
| 20260506070536 | 57 | 18 | 3.5 | 5.2 | 0.00 | 0.00 | 0.00 | 78 | 1011.5 |
| 20260506062514 | 57 | 8 | 5.2 | 6.1 | 0.00 | 0.00 | 0.00 | 79 | 1010.9 |
| 20260506062010 | 57 | 10 | 5.2 | 6.1 | 0.00 | 0.00 | 0.00 | 78 | 1011.4 |
| 20260506061506 | 57 | 2 | 6.1 | 6.1 | 0.00 | 0.00 | 0.00 | 78 | 1011.3 |
| 20260506061004 | 57 | 27 | 6.1 | 7.0 | 0.00 | 0.00 | 0.00 | 79 | 1011.3 |
| 20260506060502 | 57 | 3 | 6.1 | 7.0 | 0.00 | 0.00 | 0.00 | 79 | 1011.2 |
| 20260506050931 | 60 | 358 | 4.3 | 5.2 | 0.00 | 0.00 | 0.00 | 80 | 1010.9 |
| 20260506050429 | 60 | 359 | 7.0 | 8.7 | 0.00 | 0.00 | 0.00 | 80 | 1010.7 |
| 20260506044919 | 60 | 3 | 5.2 | 7.0 | 0.00 | 0.00 | 0.00 | 80 | 1011.0 |
| 20260506044417 | 60 | 4 | 7.8 | 11.3 | 0.00 | 0.00 | 0.00 | 80 | 1010.9 |
| 20260506043914 | 60 | 2 | 6.1 | 7.8 | 0.00 | 0.00 | 0.00 | 80 | 1011.0 |
| 20260506043411 | 60 | 2 | 5.2 | 6.1 | 0.00 | 0.00 | 0.00 | 81 | 1010.5 |
| 20260506042909 | 60 | 331 | 5.2 | 7.0 | 0.00 | 0.00 | 0.00 | 81 | 1010.7 |
| 20260506042408 | 61 | 349 | 3.5 | 4.3 | 0.00 | 0.00 | 0.00 | 81 | 1010.3 |
| 20260506041906 | 61 | 357 | 4.3 | 5.2 | 0.00 | 0.00 | 0.00 | 81 | 1010.3 |
| 20260506041403 | 61 | 350 | 6.1 | 7.8 | 0.00 | 0.00 | 0.00 | 81 | 1010.4 |
| 20260506040900 | 61 | 10 | 7.8 | 8.7 | 0.00 | 0.00 | 0.00 | 80 | 1010.6 |
| 20260506040358 | 61 | 39 | 7.8 | 8.7 | 0.00 | 0.00 | 0.00 | 80 | 1010.3 |
| 20260506035853 | 62 | 349 | 6.1 | 8.7 | 0.00 | 0.00 | 0.00 | 79 | 1010.4 |
| 20260506035351 | 62 | 6 | 6.1 | 9.6 | 0.00 | 0.00 | 0.00 | 79 | 1010.2 |
| 20260506034848 | 62 | 341 | 9.6 | 12.2 | 0.00 | 0.00 | 0.00 | 80 | 1010.5 |
| 20260506034345 | 62 | 11 | 3.5 | 6.1 | 0.00 | 0.00 | 0.00 | 80 | 1010.3 |
| 20260506033842 | 62 | 326 | 6.1 | 7.8 | 0.00 | 0.00 | 0.00 | 79 | 1010.0 |
| 20260506033339 | 63 | 350 | 10.4 | 13.9 | 0.00 | 0.00 | 0.00 | 79 | 1009.9 |
| 20260506032836 | 63 | 349 | 7.0 | 8.7 | 0.00 | 0.00 | 0.00 | 79 | 1009.6 |
| 20260506032333 | 64 | 322 | 4.3 | 6.1 | 0.00 | 0.00 | 0.00 | 78 | 1009.8 |
| 20260506031830 | 64 | 342 | 3.5 | 4.3 | 0.00 | 0.00 | 0.00 | 78 | 1009.6 |
| 20260506031327 | 65 | 17 | 6.1 | 8.7 | 0.00 | 0.00 | 0.00 | 78 | 1009.7 |
| 20260506030825 | 66 | 2 | 7.8 | 9.6 | 0.00 | 0.00 | 0.00 | 77 | 1009.7 |
| 20260506030323 | 67 | 345 | 7.8 | 11.3 | 0.00 | 0.00 | 0.00 | 77 | 1009.5 |
| 20260506025819 | 68 | 34 | 8.7 | 12.2 | 0.00 | 0.00 | 0.00 | 77 | 1008.9 |
| 20260506025315 | 69 | 356 | 7.0 | 8.7 | 0.00 | 0.00 | 0.00 | 77 | 1008.8 |
| 20260506024813 | 69 | 355 | 8.7 | 12.2 | 0.00 | 0.00 | 0.00 | 76 | 1008.8 |
| 20260506024309 | 70 | 19 | 7.0 | 7.8 | 0.00 | 0.00 | 0.00 | 77 | 1008.4 |
| 20260506023805 | 70 | 16 | 2.6 | 4.3 | 0.00 | 0.00 | 0.00 | 77 | 1008.6 |
| 20260506023303 | 70 | 334 | 2.6 | 2.6 | 0.00 | 0.00 | 0.00 | 78 | 1008.5 |
| 20260506022759 | 70 | 334 | 7.0 | 8.7 | 0.00 | 0.00 | 0.00 | 78 | 1007.9 |
| 20260506022257 | 71 | 31 | 2.6 | 4.3 | 0.00 | 0.00 | 0.00 | 77 | 1008.0 |
| 20260506021755 | 71 | 34 | 6.1 | 7.0 | 0.00 | 0.00 | 0.00 | 77 | 1008.1 |
| 20260506021252 | 71 | 324 | 0.9 | 1.7 | 0.00 | 0.00 | 0.00 | 77 | 1007.8 |
| 20260506020748 | 71 | 353 | 4.3 | 6.1 | 0.00 | 0.00 | 0.00 | 76 | 1007.9 |
| 20260506020247 | 72 | 340 | 5.2 | 7.0 | 0.00 | 0.00 | 0.00 | 76 | 1007.8 |
| 20260506015744 | 72 | 8 | 4.3 | 5.2 | 0.00 | 0.00 | 0.00 | 75 | 1007.7 |
| 20260506015241 | 73 | 350 | 3.5 | 4.3 | 0.00 | 0.00 | 0.00 | 75 | 1007.7 |
| 20260506014738 | 73 | 353 | 6.1 | 7.0 | 0.00 | 0.00 | 0.00 | 74 | 1007.6 |
| 20260506014234 | 74 | 23 | 6.1 | 7.8 | 0.00 | 0.00 | 0.00 | 74 | 1007.9 |
| 20260506013732 | 74 | 328 | 2.6 | 2.6 | 0.00 | 0.00 | 0.00 | 74 | 1007.6 |
| 20260506013229 | 74 | 4 | 1.7 | 1.7 | 0.00 | 0.00 | 0.00 | 73 | 1007.5 |
| 20260506012725 | 74 | 17 | 2.6 | 2.6 | 0.00 | 0.00 | 0.00 | 73 | 1007.0 |
| 20260506012222 | 74 | 8 | 1.7 | 1.7 | 0.00 | 0.00 | 0.00 | 73 | 1007.4 |
| 20260506011719 | 75 | 48 | 0.9 | 0.9 | 0.00 | 0.00 | 0.00 | 72 | 1006.8 |
| 20260506011215 | 75 | 13 | 2.6 | 2.6 | 0.00 | 0.00 | 0.00 | 71 | 1007.4 |
| 20260506010714 | 75 | 35 | 2.6 | 2.6 | 0.00 | 0.00 | 0.00 | 70 | 1007.0 |
| 20260506010211 | 76 | 358 | 3.5 | 4.3 | 0.00 | 0.00 | 0.00 | 69 | 1007.1 |
| 20260506005708 | 77 | 359 | 5.2 | 7.0 | 0.00 | 0.00 | 0.00 | 67 | 1007.1 |
| 20260506005205 | 78 | 15 | 1.7 | 1.7 | 0.00 | 0.00 | 0.00 | 65 | 1007.3 |
| 20260506004701 | 78 | 297 | 2.6 | 4.3 | 0.00 | 0.00 | 0.00 | 66 | 1007.3 |
| 20260506004159 | 79 | 84 | 0.0 | 0.0 | 0.00 | 0.00 | 0.00 | 68 | 1006.9 |
| 20260506003654 | 80 | 42 | 0.9 | 0.9 | 0.00 | 0.00 | 0.00 | 77 | 1006.9 |
| 20260506003151 | 80 | 296 | 2.6 | 4.3 | 0.00 | 0.00 | 0.00 | 78 | 1007.0 |
| 20260506002647 | 80 | 248 | 3.5 | 4.3 | 0.00 | 0.00 | 0.00 | 77 | 1006.9 |
| 20260506002143 | 80 | 198 | 2.6 | 4.3 | 0.00 | 0.00 | 0.00 | 76 | 1006.5 |
| 20260506001639 | 80 | 194 | 2.6 | 2.6 | 0.00 | 0.00 | 0.00 | 75 | 1006.4 |
| 20260506001137 | 80 | 181 | 2.6 | 2.6 | 0.00 | 0.00 | 0.00 | 75 | 1006.1 |
| 20260506000633 | 81 | 180 | 4.3 | 5.2 | 0.00 | 0.00 | 0.00 | 75 | 1006.0 |
| 20260506000131 | 81 | 165 | 4.3 | 5.2 | 0.00 | 0.00 | 0.00 | 74 | 1005.9 |
| 20260505235629 | 81 | 180 | 4.3 | 5.2 | 0.00 | 0.00 | 0.00 | 74 | 1006.0 |
| 20260505235126 | 81 | 169 | 2.6 | 4.3 | 0.00 | 0.00 | 0.00 | 74 | 1006.1 |
| 20260505234622 | 82 | 188 | 4.3 | 5.2 | 0.00 | 0.00 | 0.00 | 73 | 1006.0 |
| 20260505234119 | 82 | 195 | 7.8 | 7.8 | 0.00 | 0.00 | 0.00 | 72 | 1006.0 |
| 20260505233617 | 82 | 149 | 5.2 | 6.1 | 0.00 | 0.00 | 0.00 | 72 | 1005.8 |
| 20260505233114 | 82 | 174 | 7.0 | 7.8 | 0.00 | 0.00 | 0.00 | 71 | 1005.9 |
| 20260505232612 | 82 | 195 | 5.2 | 6.1 | 0.00 | 0.00 | 0.00 | 71 | 1006.0 |
| 20260505232109 | 82 | 199 | 7.0 | 7.8 | 0.00 | 0.00 | 0.00 | 71 | 1005.8 |
| 20260505231606 | 82 | 165 | 7.0 | 7.0 | 0.00 | 0.00 | 0.00 | 70 | 1005.7 |
| 20260505231105 | 83 | 200 | 5.2 | 7.0 | 0.00 | 0.00 | 0.00 | 70 | 1005.6 |
| 20260505230602 | 83 | 216 | 7.0 | 8.7 | 0.00 | 0.00 | 0.00 | 69 | 1005.5 |
| 20260505230058 | 84 | 163 | 7.8 | 11.3 | 0.00 | 0.00 | 0.00 | 68 | 1005.8 |
| 20260505225555 | 84 | 183 | 7.8 | 8.7 | 0.00 | 0.00 | 0.00 | 67 | 1005.6 |
| 20260505225051 | 85 | 203 | 7.8 | 8.7 | 0.00 | 0.00 | 0.00 | 65 | 1005.8 |
| 20260505224548 | 85 | 205 | 9.6 | 11.3 | 0.00 | 0.00 | 0.00 | 66 | 1005.4 |
| 20260505224045 | 86 | 178 | 7.8 | 7.8 | 0.00 | 0.00 | 0.00 | 65 | 1005.4 |
| 20260505223542 | 86 | 197 | 7.0 | 7.8 | 0.00 | 0.00 | 0.00 | 65 | 1005.2 |
| 20260505223038 | 85 | 212 | 7.8 | 7.8 | 0.00 | 0.00 | 0.00 | 65 | 1005.2 |
| 20260505222535 | 84 | 205 | 6.1 | 8.7 | 0.00 | 0.00 | 0.00 | 68 | 1005.4 |
| 20260505222031 | 85 | 209 | 6.1 | 7.0 | 0.00 | 0.00 | 0.00 | 66 | 1005.6 |
| 20260505221528 | 85 | 203 | 7.8 | 7.8 | 0.00 | 0.00 | 0.00 | 66 | 1005.5 |
| 20260505221025 | 85 | 179 | 6.1 | 7.8 | 0.00 | 0.00 | 0.00 | 65 | 1005.5 |
| 20260505220522 | 85 | 191 | 7.0 | 8.7 | 0.00 | 0.00 | 0.00 | 65 | 1005.5 |
| 20260505220020 | 84 | 217 | 7.0 | 7.8 | 0.00 | 0.00 | 0.00 | 66 | 1005.4 |
| 20260505215518 | 84 | 207 | 8.7 | 9.6 | 0.00 | 0.00 | 0.00 | 66 | 1005.5 |
| 20260505215015 | 85 | 198 | 9.6 | 11.3 | 0.00 | 0.00 | 0.00 | 65 | 1005.5 |
| 20260505214513 | 85 | 199 | 5.2 | 6.1 | 0.00 | 0.00 | 0.00 | 66 | 1005.7 |
| 20260505214010 | 86 | 212 | 7.8 | 8.7 | 0.00 | 0.00 | 0.00 | 64 | 1005.6 |
| 20260505213508 | 86 | 218 | 8.7 | 11.3 | 0.00 | 0.00 | 0.00 | 64 | 1005.6 |
| 20260505213004 | 86 | 183 | 9.6 | 11.3 | 0.00 | 0.00 | 0.00 | 63 | 1005.8 |
| 20260505212500 | 85 | 204 | 8.7 | 9.6 | 0.00 | 0.00 | 0.00 | 65 | 1005.7 |
| 20260505211957 | 86 | 207 | 7.8 | 8.7 | 0.00 | 0.00 | 0.00 | 62 | 1005.6 |
| 20260505211454 | 86 | 229 | 9.6 | 9.6 | 0.00 | 0.00 | 0.00 | 64 | 1005.7 |
| 20260505210951 | 85 | 194 | 12.2 | 15.6 | 0.00 | 0.00 | 0.00 | 62 | 1005.7 |
| 20260505210448 | 85 | 217 | 7.8 | 7.8 | 0.00 | 0.00 | 0.00 | 63 | 1005.8 |
| 20260505205944 | 85 | 243 | 9.6 | 11.3 | 0.00 | 0.00 | 0.00 | 64 | 1005.9 |
| 20260505205443 | 85 | 225 | 6.1 | 7.0 | 0.00 | 0.00 | 0.00 | 65 | 1006.2 |
| 20260505204939 | 84 | 201 | 10.4 | 13.9 | 0.00 | 0.00 | 0.00 | 65 | 1006.3 |
| 20260505204438 | 85 | 212 | 10.4 | 13.9 | 0.00 | 0.00 | 0.00 | 64 | 1006.3 |
| 20260505203934 | 85 | 192 | 7.0 | 8.7 | 0.00 | 0.00 | 0.00 | 65 | 1006.3 |
| 20260505203431 | 84 | 186 | 7.8 | 8.7 | 0.00 | 0.00 | 0.00 | 68 | 1006.1 |
| 20260505202927 | 84 | 223 | 9.6 | 12.2 | 0.00 | 0.00 | 0.00 | 66 | 1006.1 |
| 20260505202424 | 84 | 219 | 9.6 | 11.3 | 0.00 | 0.00 | 0.00 | 66 | 1006.0 |
| 20260505201920 | 84 | 207 | 7.8 | 9.6 | 0.00 | 0.00 | 0.00 | 67 | 1006.0 |
| 20260505201417 | 83 | 263 | 9.6 | 9.6 | 0.00 | 0.00 | 0.00 | 67 | 1006.2 |
| 20260505200915 | 83 | 199 | 11.3 | 13.0 | 0.00 | 0.00 | 0.00 | 66 | 1006.5 |
| 20260505200412 | 83 | 218 | 8.7 | 9.6 | 0.00 | 0.00 | 0.00 | 66 | 1006.5 |
| 20260505195908 | 83 | 189 | 12.2 | 13.9 | 0.00 | 0.00 | 0.00 | 67 | 1006.1 |
| 20260505195405 | 83 | 205 | 12.2 | 13.0 | 0.00 | 0.00 | 0.00 | 67 | 1006.4 |
| 20260505194903 | 83 | 226 | 11.3 | 15.6 | 0.00 | 0.00 | 0.00 | 67 | 1006.5 |
| 20260505194400 | 83 | 228 | 13.0 | 14.8 | 0.00 | 0.00 | 0.00 | 66 | 1006.3 |
| 20260505193900 | 82 | 217 | 11.3 | 12.2 | 0.00 | 0.00 | 0.00 | 67 | 1006.4 |
| 20260505193358 | 82 | 183 | 11.3 | 13.0 | 0.00 | 0.00 | 0.00 | 68 | 1006.6 |
| 20260505192855 | 82 | 189 | 7.8 | 12.2 | 0.00 | 0.00 | 0.00 | 69 | 1006.5 |
| 20260505192353 | 82 | 195 | 14.8 | 15.6 | 0.00 | 0.00 | 0.00 | 68 | 1006.6 |
| 20260505191850 | 81 | 200 | 8.7 | 13.0 | 0.00 | 0.00 | 0.00 | 70 | 1006.2 |
| 20260505191349 | 81 | 211 | 10.4 | 12.2 | 0.00 | 0.00 | 0.00 | 70 | 1006.6 |
| 20260505190845 | 81 | 199 | 11.3 | 13.9 | 0.00 | 0.00 | 0.00 | 69 | 1006.8 |
| 20260505190341 | 81 | 193 | 9.6 | 12.2 | 0.00 | 0.00 | 0.00 | 69 | 1006.5 |
| 20260505185837 | 81 | 213 | 7.8 | 8.7 | 0.00 | 0.00 | 0.00 | 70 | 1006.5 |
| 20260505185333 | 81 | 227 | 10.4 | 13.0 | 0.00 | 0.00 | 0.00 | 70 | 1006.5 |
| 20260505184830 | 81 | 193 | 8.7 | 9.6 | 0.00 | 0.00 | 0.00 | 70 | 1006.6 |
| 20260505184327 | 81 | 193 | 9.6 | 12.2 | 0.00 | 0.00 | 0.00 | 70 | 1006.4 |
| 20260505183824 | 81 | 199 | 11.3 | 13.9 | 0.00 | 0.00 | 0.00 | 70 | 1006.4 |
| 20260505183321 | 82 | 211 | 8.7 | 9.6 | 0.00 | 0.00 | 0.00 | 68 | 1006.6 |
| 20260505182817 | 82 | 225 | 11.3 | 12.2 | 0.00 | 0.00 | 0.00 | 68 | 1006.5 |
| 20260505182314 | 82 | 227 | 10.4 | 12.2 | 0.00 | 0.00 | 0.00 | 69 | 1006.5 |
| 20260505181811 | 81 | 206 | 8.7 | 11.3 | 0.00 | 0.00 | 0.00 | 68 | 1006.6 |
| 20260505181308 | 82 | 221 | 14.8 | 18.2 | 0.00 | 0.00 | 0.00 | 67 | 1006.6 |
| 20260505180805 | 82 | 214 | 13.9 | 17.4 | 0.00 | 0.00 | 0.00 | 67 | 1006.5 |
| 20260505180301 | 81 | 192 | 13.9 | 14.8 | 0.00 | 0.00 | 0.00 | 68 | 1006.5 |
| 20260505175758 | 80 | 203 | 15.6 | 19.1 | 0.00 | 0.00 | 0.00 | 68 | 1006.7 |
| 20260505175254 | 80 | 226 | 12.2 | 15.6 | 0.00 | 0.00 | 0.00 | 69 | 1006.8 |
| 20260505174751 | 80 | 197 | 16.5 | 19.1 | 0.00 | 0.00 | 0.00 | 68 | 1006.2 |
| 20260505174248 | 80 | 205 | 11.3 | 13.9 | 0.00 | 0.00 | 0.00 | 71 | 1006.4 |
| 20260505173744 | 80 | 215 | 13.9 | 15.6 | 0.00 | 0.00 | 0.00 | 69 | 1006.1 |
| 20260505173241 | 80 | 201 | 13.0 | 15.6 | 0.00 | 0.00 | 0.00 | 70 | 1006.9 |
| 20260505172738 | 79 | 216 | 7.8 | 8.7 | 0.00 | 0.00 | 0.00 | 71 | 1006.7 |
| 20260505172235 | 79 | 220 | 13.0 | 15.6 | 0.00 | 0.00 | 0.00 | 71 | 1006.9 |
| 20260505171735 | 79 | 189 | 7.8 | 8.7 | 0.00 | 0.00 | 0.00 | 72 | 1006.8 |
| 20260505171232 | 79 | 198 | 11.3 | 12.2 | 0.00 | 0.00 | 0.00 | 71 | 1006.4 |
| 20260505170728 | 78 | 194 | 12.2 | 15.6 | 0.00 | 0.00 | 0.00 | 73 | 1006.5 |
| 20260505170226 | 78 | 214 | 10.4 | 12.2 | 0.00 | 0.00 | 0.00 | 73 | 1006.7 |
| 20260505165721 | 78 | 212 | 13.0 | 15.6 | 0.00 | 0.00 | 0.00 | 72 | 1007.0 |
| 20260505165217 | 78 | 224 | 12.2 | 13.9 | 0.00 | 0.00 | 0.00 | 73 | 1007.3 |
| 20260505164712 | 78 | 221 | 13.9 | 15.6 | 0.00 | 0.00 | 0.00 | 72 | 1007.2 |
| 20260505164210 | 78 | 211 | 13.0 | 14.8 | 0.00 | 0.00 | 0.00 | 72 | 1007.2 |
| 20260505163708 | 78 | 213 | 16.5 | 19.1 | 0.00 | 0.00 | 0.00 | 73 | 1007.0 |
| 20260505163206 | 78 | 211 | 14.8 | 20.0 | 0.00 | 0.00 | 0.00 | 74 | 1006.9 |
| 20260505162703 | 77 | 209 | 13.0 | 15.6 | 0.00 | 0.00 | 0.00 | 74 | 1006.8 |
| 20260505162200 | 77 | 219 | 15.6 | 19.1 | 0.00 | 0.00 | 0.00 | 74 | 1006.6 |
| 20260505161657 | 77 | 204 | 13.0 | 13.9 | 0.00 | 0.00 | 0.00 | 74 | 1006.7 |
| 20260505161154 | 77 | 214 | 10.4 | 12.2 | 0.00 | 0.00 | 0.00 | 76 | 1006.7 |
| 20260505160652 | 77 | 212 | 10.4 | 12.2 | 0.00 | 0.00 | 0.00 | 76 | 1006.5 |
| 20260505160149 | 77 | 226 | 9.6 | 12.2 | 0.00 | 0.00 | 0.00 | 75 | 1006.2 |
| 20260505153129 | 75 | 230 | 12.2 | 13.9 | 0.00 | 0.00 | 0.00 | 78 | 1006.6 |
| 20260505152625 | 75 | 196 | 10.4 | 14.8 | 0.00 | 0.00 | 0.00 | 78 | 1006.7 |
| 20260505152121 | 76 | 212 | 10.4 | 13.9 | 0.00 | 0.00 | 0.00 | 78 | 1006.7 |
| 20260505151617 | 75 | 218 | 7.8 | 13.0 | 0.00 | 0.00 | 0.00 | 79 | 1006.8 |
| 20260505151114 | 75 | 217 | 11.3 | 14.8 | 0.00 | 0.00 | 0.00 | 78 | 1006.9 |
| 20260505150610 | 74 | 198 | 14.8 | 17.4 | 0.00 | 0.00 | 0.00 | 80 | 1006.7 |
| 20260505150107 | 74 | 197 | 11.3 | 12.2 | 0.00 | 0.00 | 0.00 | 80 | 1007.0 |
| 20260505140536 | 72 | 205 | 13.9 | 15.6 | 0.00 | 0.00 | 0.00 | 83 | 1006.6 |
| 20260505124949 | 71 | 185 | 11.3 | 13.9 | 0.00 | 0.00 | 0.00 | 85 | 1006.5 |
| 20260505124446 | 71 | 197 | 7.8 | 8.7 | 0.00 | 0.00 | 0.00 | 85 | 1006.3 |
| 20260505123942 | 71 | 181 | 7.8 | 9.6 | 0.00 | 0.00 | 0.00 | 85 | 1006.5 |
| 20260505123439 | 71 | 211 | 9.6 | 12.2 | 0.00 | 0.00 | 0.00 | 84 | 1006.4 |
| 20260505122935 | 71 | 196 | 10.4 | 12.2 | 0.00 | 0.00 | 0.00 | 84 | 1006.3 |
| 20260505122432 | 71 | 195 | 9.6 | 11.3 | 0.00 | 0.00 | 0.00 | 84 | 1006.3 |
| 20260505121929 | 71 | 222 | 7.8 | 7.8 | 0.00 | 0.00 | 0.00 | 84 | 1006.3 |
| 20260505121426 | 71 | 209 | 8.7 | 9.6 | 0.00 | 0.00 | 0.00 | 84 | 1006.0 |
| 20260505120921 | 71 | 212 | 11.3 | 13.9 | 0.00 | 0.00 | 0.00 | 84 | 1006.1 |
| 20260505120418 | 71 | 207 | 11.3 | 13.9 | 0.00 | 0.00 | 0.00 | 84 | 1006.1 |
| 20260505115917 | 71 | 203 | 9.6 | 11.3 | 0.00 | 0.00 | 0.00 | 84 | 1006.0 |
| 20260505115414 | 71 | 209 | 9.6 | 9.6 | 0.00 | 0.00 | 0.00 | 85 | 1006.2 |
| 20260505114912 | 71 | 194 | 7.8 | 8.7 | 0.00 | 0.00 | 0.00 | 84 | 1006.1 |
| 20260505114408 | 71 | 198 | 9.6 | 11.3 | 0.00 | 0.00 | 0.00 | 85 | 1006.0 |
| 20260505113904 | 70 | 217 | 7.8 | 9.6 | 0.00 | 0.00 | 0.00 | 85 | 1005.9 |
| 20260505113401 | 70 | 190 | 6.1 | 7.8 | 0.00 | 0.00 | 0.00 | 85 | 1006.0 |
| 20260505112857 | 70 | 205 | 9.6 | 12.2 | 0.00 | 0.00 | 0.00 | 85 | 1005.8 |
| 20260505112355 | 70 | 218 | 7.8 | 9.6 | 0.00 | 0.00 | 0.00 | 85 | 1005.6 |
| 20260505111850 | 70 | 215 | 12.2 | 14.8 | 0.00 | 0.00 | 0.00 | 84 | 1005.7 |
| 20260505111346 | 70 | 197 | 7.8 | 9.6 | 0.00 | 0.00 | 0.00 | 84 | 1005.7 |
| 20260505110842 | 70 | 180 | 10.4 | 13.0 | 0.00 | 0.00 | 0.00 | 84 | 1005.6 |
| 20260505110340 | 70 | 211 | 12.2 | 13.9 | 0.00 | 0.00 | 0.00 | 84 | 1005.6 |